Temperature
18 18 18 18 18 18 18 18 18 18 18 18 18 18 18 18 18 19 19 18 18 19 19 19 19 19 19 18 18 18 18 18 18 18 18 18 18 18 17 17 17 17 17
18 18 18 18 18 18 18 18 18 18 18 18 18 18 18 18 18 18 18 18 18 18 18 19 19 19 19 18 18 18 18 18 18 18 18 18 18 18 18 17 17 17 17
18 18 18 18 18 18 18 18 17 17 17 17 18 18 18 18 18 18 18 18 18 18 18 19 19 19 19 18 18 18 18 18 18 18 18 18 18 18 18 17 17 17 17
17 17 17 17 17 17 17 17 17 17 17 17 17 18 18 18 18 18 18 18 18 18 18 18 18 18 18 18 18 18 18 18 18 18 18 18 18 18 18 18 17 17 17
17 17 17 17 17 17 17 17 17 17 17 17 17 17 18 18 18 18 18 18 18 18 18 18 18 18 18 18 18 18 18 18 18 18 18 18 18 18 18 18 18 17 17
16 16 16 16 16 16 16 16 16 16 16 17 17 17 17 18 18 18 18 18 18 18 18 18 18 18 18 18 18 18 18 18 18 18 18 18 18 18 18 18 17 17 17
16 16 16 16 16 16 16 16 16 16 16 16 16 17 17 18 18 18 18 18 18 18 18 18 18 18 18 18 18 18 18 18 18 18 18 18 18 17 17 17 17 17 17
16 15 15 15 15 15 15 16 16 16 16 16 16 17 17 18 18 18 18 18 18 18 18 18 18 18 18 18 18 18 18 18 18 18 18 17 17 17 17 17 17 17 17
15 15 15 15 15 15 15 15 15 15 16 16 16 16 17 18 18 18 18 18 18 18 18 18 18 18 18 17 17 17 17 17 18 18 17 17 17 17 17 17 17 17 17
15 15 15 15 15 15 15 15 15 15 16 16 16 16 17 17 18 18 18 18 18 18 18 18 18 18 18 17 17 17 17 17 17 17 17 17 17 17 17 17 17 17 17
15 15 14 15 14 14 14 15 15 15 15 15 16 16 16 17 17 17 18 18 18 18 18 18 18 18 17 17 17 17 17 17 17 17 17 17 17 17 17 17 17 17 17
14 14 14 14 14 14 14 14 14 14 15 15 15 15 16 16 17 17 18 18 18 18 18 18 18 18 17 17 17 17 17 17 17 17 17 17 17 17 17 17 17 16 16
14 14 14 14 14 13 13 13 13 14 14 14 15 15 15 16 16 17 17 18 18 18 18 18 18 18 17 17 17 17 17 17 17 17 17 17 17 17 17 17 17 16 16
13 14 13 13 13 13 13 13 13 13 13 14 14 14 15 15 16 16 17 17 18 18 18 18 18 18 17 17 17 17 17 17 17 17 17 17 17 17 17 17 17 16 16
13 13 13 13 12 12 12 12 12 12 12 13 13 13 14 14 15 16 16 17 17 17 17 18 18 17 17 17 17 17 17 17 17 17 17 17 17 17 17 17 16 16 16
12 12 12 12 12 12 12 12 12 12 12 12 12 13 13 13 14 15 15 16 16 17 17 17 17 17 17 17 17 16 16 16 16 16 16 16 16 17 16 16 16 16 16
11 11 11 11 11 11 11 11 11 11 11 11 12 12 12 13 13 14 14 15 15 16 16 17 17 16 16 16 16 16 16 16 16 16 16 16 16 16 16 16 16 16 16
11 11 11 11 11 11 11 11 11 11 11 11 11 11 12 12 12 13 13 14 14 15 15 16 16 15 16 15 16 15 15 15 16 15 15 16 16 16 16 16 16 16 16
10 10 10 10 10 10 10 11 11 11 11 11 11 11 11 11 11 12 12 13 13 14 14 14 15 15 15 15 15 15 14 15 15 15 15 15 15 15 15 15 16 16 16
9 9 9 9 10 10 10 10 10 10 10 10 11 11 11 11 11 11 11 12 12 13 13 13 14 14 14 14 14 14 14 14 14 14 14 14 14 15 15 15 15 15 15
9 9 9 9 9 9 9 10 10 10 10 10 10 10 10 11 11 11 11 11 11 12 12 13 13 13 13 14 14 14 14 14 13 13 13 14 14 14 14 14 15 15 15
8 8 8 8 8 8 9 9 9 9 10 10 10 10 10 10 10 10 11 11 11 11 11 12 12 13 13 13 14 13 13 13 13 13 13 13 13 13 14 14 14 14 14
8 8 8 8 8 8 8 9 9 9 9 9 9 10 10 10 10 10 10 10 10 11 11 11 12 12 12 13 13 13 13 13 13 13 12 12 12 12 13 13 13 13 14
7 7 7 7 7 8 8 8 8 8 8 9 9 9 9 10 10 10 10 10 10 10 11 11 11 12 12 12 13 13 13 13 13 13 12 12 11 12 12 12 13 13 13
7 7 7 7 7 7 7 7 8 8 8 8 8 9 9 9 10 10 10 10 10 10 10 11 11 11 11 12 12 12 12 12 12 12 12 12 11 11 11 11 12 12 12
7 7 7 7 7 7 7 7 7 7 7 8 8 8 9 9 9 9 10 10 9 10 10 10 10 11 11 11 12 12 12 12 12 12 12 12 11 11 10 11 11 11 11
Wind_Speed
3 4 3 2 3 6 6 6 6 8 9 8 9 9 9 11 11 9 11 20 21 22 22 21 20 20 20 20 21 21 21 20 20 20 19 19 18 17 17 16 16 16 15
2 2 3 4 4 4 4 4 7 7 7 6 9 8 7 9 9 8 10 17 21 23 22 22 22 21 21 21 21 22 22 22 22 22 21 21 20 19 19 18 18 18 17
2 3 4 4 5 6 6 5 6 6 7 8 10 9 7 7 6 8 9 13 17 20 22 22 23 22 22 22 22 22 23 23 23 23 23 23 22 22 21 20 20 19 19
4 3 4 5 5 5 4 6 7 7 7 8 7 7 7 7 9 8 8 10 12 14 19 23 23 23 23 23 23 23 23 24 24 24 24 24 23 23 23 22 21 21 21
6 4 4 4 4 4 5 8 6 6 7 8 7 7 7 8 9 10 8 8 11 13 15 21 24 24 23 24 23 23 24 24 24 24 24 24 24 24 24 24 23 23 23
6 4 4 4 4 4 5 6 5 5 6 6 9 8 7 8 8 8 9 8 10 13 15 16 18 20 24 24 24 24 24 24 24 24 24 24 25 24 24 24 24 24 24
4 3 4 4 4 5 5 6 5 6 6 6 5 5 6 7 8 7 8 8 9 10 12 13 16 15 16 23 24 23 23 23 23 23 23 24 24 24 24 24 24 24 24
3 4 3 3 4 4 4 4 4 4 5 5 4 3 4 4 6 10 8 8 8 7 8 11 12 13 13 14 19 23 23 22 22 22 22 23 23 23 23 24 24 24 25
2 3 3 3 3 4 3 3 4 5 5 4 5 3 3 3 4 5 8 7 6 5 6 6 9 11 11 11 14 20 23 22 21 21 21 22 22 23 23 23 24 24 24
2 2 2 3 3 3 3 4 3 4 5 4 4 4 3 2 1 2 4 5 7 6 5 6 7 8 11 10 11 15 21 20 19 18 18 19 20 21 22 22 23 23 23
3 3 2 2 2 3 3 4 3 4 4 4 3 2 4 4 4 3 4 4 4 5 5 5 4 6 9 10 10 13 18 19 17 16 16 16 18 18 19 20 21 22 22
4 4 3 2 2 2 3 4 4 4 4 4 3 2 3 3 3 4 4 5 5 5 6 5 5 5 6 9 10 14 17 16 15 14 13 13 14 15 16 17 19 20 20
4 3 2 2 3 3 3 4 4 4 4 4 4 3 4 4 4 3 3 4 5 4 4 5 5 5 6 9 10 16 15 15 13 12 10 10 11 12 13 14 16 17 18
6 5 4 4 4 4 5 3 3 4 3 3 5 4 3 4 4 4 2 2 2 3 3 4 4 5 5 9 13 14 12 14 13 11 10 8 8 8 9 10 10 11 13
8 6 5 5 5 5 5 4 4 4 4 3 4 3 3 4 4 4 4 2 2 3 4 4 3 5 6 9 14 11 11 12 12 11 10 9 8 7 6 6 6 8 9
8 9 9 8 7 7 7 6 5 5 5 4 3 3 3 4 4 4 4 3 2 3 3 3 3 4 6 8 12 11 12 14 12 11 10 9 8 7 6 5 4 5 6
9 9 9 9 9 9 8 8 8 7 7 6 5 5 5 4 4 3 3 3 3 2 3 2 2 4 5 7 7 9 12 11 9 10 11 10 8 7 6 5 4 3 4
9 9 9 9 10 10 10 9 10 10 8 8 8 7 6 5 5 4 4 4 3 3 3 3 2 3 5 7 7 7 7 9 9 11 11 11 9 8 7 6 4 3 3
10 10 9 10 10 10 10 10 10 10 9 9 9 8 8 7 6 5 5 4 3 4 2 3 3 3 3 5 7 6 7 6 9 11 11 10 10 9 8 6 5 4 3
10 10 10 10 10 10 11 11 11 11 10 10 9 9 9 8 8 7 6 6 4 4 3 3 4 4 4 5 6 7 6 6 6 8 8 9 10 10 9 8 6 5 5
13 10 10 10 10 11 12 11 10 12 11 10 9 9 10 10 11 8 7 6 6 5 4 4 5 4 5 6 6 6 7 6 5 6 7 6 6 5 6 7 7 6 7
11 11 11 11 12 13 12 8 8 8 7 9 9 10 10 10 11 12 11 9 8 7 6 5 5 5 6 6 6 7 8 8 5 6 6 5 5 5 5 6 7 8 9
11 11 11 11 11 11 12 10 10 8 8 8 8 9 12 13 13 11 12 12 11 10 8 5 5 5 5 5 7 8 8 9 6 8 7 5 5 6 5 8 9 10 11
11 11 11 12 10 12 13 12 11 9 8 9 9 9 10 9 10 10 11 11 10 10 10 8 7 6 5 3 4 5 6 6 6 7 7 5 5 6 6 7 9 11 12
12 11 11 11 11 10 11 12 12 8 8 10 11 11 11 11 11 12 10 9 9 9 13 13 12 10 9 8 5 4 6 8 7 6 5 5 6 6 5 4 7 11 13
11 11 11 10 10 10 11 13 13 9 8 9 9 10 13 12 13 13 10 9 9 8 8 9 10 9 9 9 11 8 8 9 7 5 6 6 8 6 5 3 4 7 9
Wind_Direction
235 263 281 278 245 225 207 215 220 224 226 229 233 221 216 223 234 225 184 183 187 191 191 193 198 204 208 209 208 207 206 205 205 205 204 206 207 206 204 203 202 201 199
267 265 272 273 268 261 247 222 224 227 230 231 235 232 228 232 234 234 188 189 197 198 196 197 201 205 209 211 210 210 209 207 207 207 206 207 209 209 208 208 207 207 206
278 277 263 260 260 259 259 248 242 233 230 232 232 230 228 233 238 239 217 191 197 204 204 204 204 206 209 212 212 212 210 209 209 209 209 209 210 210 210 211 211 210 210
288 269 258 253 257 262 253 247 244 237 235 231 229 227 227 226 234 233 226 204 199 208 210 211 208 207 210 212 213 213 212 211 210 210 210 210 211 211 212 213 213 213 213
293 274 260 259 259 261 255 253 238 236 241 237 231 223 222 224 223 228 224 215 209 209 206 211 210 209 210 212 214 214 214 213 211 211 210 211 212 211 212 214 215 215 215
299 301 277 267 265 263 262 257 250 240 240 236 240 235 220 221 211 215 219 220 214 209 207 205 202 211 213 212 212 214 214 213 212 212 211 212 214 213 212 214 216 216 216
310 305 290 283 270 260 258 252 242 243 242 234 234 243 235 227 215 211 212 218 214 208 209 196 189 197 206 214 212 212 212 212 212 212 212 214 215 214 213 215 217 217 218
309 298 306 301 283 265 263 265 246 248 248 229 218 227 225 224 229 220 202 209 217 202 200 195 187 188 196 194 210 211 211 212 212 212 212 214 216 217 217 218 219 219 219
275 297 304 303 305 294 269 263 252 236 250 241 222 220 224 215 205 212 208 202 196 195 197 186 181 181 191 185 192 206 209 209 211 213 214 215 217 218 219 219 219 220 220
271 267 284 292 297 294 296 282 273 253 245 245 235 231 250 281 221 182 219 193 182 190 203 196 184 169 187 190 185 188 201 205 207 212 214 215 217 219 221 221 220 221 222
247 240 241 264 299 301 301 305 304 285 256 247 246 235 240 251 238 211 207 185 180 185 195 191 166 171 181 179 171 178 186 193 200 206 212 215 216 218 220 220 222 223 223
251 230 225 203 273 298 308 301 295 291 285 270 264 262 253 247 232 223 201 190 191 197 190 177 170 167 165 167 170 165 173 181 189 197 204 208 211 216 219 221 224 225 225
283 256 253 206 232 247 270 282 284 282 286 287 277 265 268 274 268 251 223 217 201 180 166 165 169 168 169 143 141 152 160 166 173 180 187 195 205 214 217 218 222 226 227
290 281 264 242 239 241 253 259 278 280 265 261 268 274 276 275 287 283 256 247 226 178 164 187 174 168 142 133 144 148 152 160 165 169 175 180 186 195 202 208 215 221 225
285 292 299 274 258 252 250 248 246 259 266 253 252 259 262 272 282 292 292 266 233 212 201 190 168 151 133 124 149 147 144 153 155 158 161 163 164 164 170 185 203 215 221
280 278 273 270 259 251 244 237 243 243 240 239 239 244 252 265 273 278 281 283 261 231 225 193 179 153 145 143 156 142 136 142 144 149 149 148 148 148 153 159 173 197 211
276 271 267 266 261 252 245 236 233 236 234 235 237 233 227 240 257 272 285 284 272 244 230 222 150 146 130 132 137 135 142 144 139 141 140 138 137 137 141 144 158 183 206
284 278 269 264 258 254 242 238 237 238 230 227 227 228 227 228 228 241 254 262 270 266 218 219 190 156 151 148 149 154 155 146 136 137 135 132 130 130 130 131 138 157 188
287 280 274 270 266 261 252 242 236 234 232 227 223 222 221 218 221 221 229 241 243 252 223 220 218 177 163 162 157 163 139 131 134 138 134 128 126 125 122 118 118 123 136
291 283 276 270 268 265 260 251 242 233 232 229 223 222 221 215 213 211 220 223 228 232 225 222 225 201 183 172 164 158 150 151 146 147 132 130 127 118 110 105 103 102 106
290 287 283 275 268 264 259 253 246 242 234 230 226 222 225 220 212 209 220 210 213 217 217 214 222 210 197 179 182 173 166 156 144 143 138 138 138 126 110 96 90 94 104
292 289 283 275 268 266 263 255 254 255 245 234 228 226 228 222 213 207 212 204 200 213 215 214 222 215 214 200 189 183 167 161 159 156 148 146 144 122 106 91 93 100 104
292 290 284 276 268 262 255 244 242 248 252 245 235 228 234 227 206 205 206 207 211 214 206 202 222 221 219 209 189 189 182 175 163 159 151 141 129 108 97 91 100 103 106
288 282 278 275 269 264 250 234 229 235 245 246 242 235 229 238 227 207 203 207 211 213 209 211 219 226 238 223 197 196 189 161 133 150 149 135 132 115 101 94 98 105 109
290 282 276 269 264 260 244 227 220 232 234 237 238 236 228 223 225 213 205 206 212 217 217 216 208 213 220 220 196 173 180 166 158 163 158 135 137 123 114 108 105 109 112
289 286 280 272 264 256 240 223 215 229 231 234 236 237 232 222 214 207 208 206 212 216 220 210 212 217 216 214 201 192 189 181 164 163 171 144 149 142 131 126 133 129 118
Height
1518 1519 1520 1520 1521 1521 1522 1523 1523 1524 1525 1526 1528 1529 1530 1532 1534 1536 1536 1537 1539 1541 1544 1545 1548 1550 1553 1555 1558 1560 1563 1565 1568 1570 1572 1575 1577 1579 1581 1584 1586 1588 1591
1514 1514 1515 1515 1516 1517 1517 1518 1519 1520 1521 1522 1523 1524 1525 1527 1529 1531 1532 1533 1535 1537 1540 1541 1543 1546 1548 1551 1554 1557 1559 1562 1565 1567 1569 1572 1574 1577 1579 1581 1584 1586 1588
1510 1510 1510 1510 1511 1512 1512 1513 1514 1514 1515 1517 1517 1519 1519 1521 1523 1525 1527 1529 1530 1533 1535 1537 1539 1541 1544 1547 1550 1553 1555 1558 1561 1563 1566 1568 1571 1573 1576 1578 1581 1583 1586
1504 1504 1504 1504 1505 1506 1506 1507 1508 1508 1510 1511 1512 1513 1514 1516 1518 1519 1522 1524 1526 1527 1529 1532 1534 1537 1540 1542 1545 1548 1551 1554 1557 1559 1562 1564 1567 1570 1572 1575 1578 1580 1583
1499 1498 1498 1497 1498 1499 1500 1501 1502 1503 1504 1506 1507 1508 1509 1511 1512 1514 1516 1518 1520 1522 1525 1527 1530 1532 1535 1538 1541 1543 1546 1549 1552 1555 1558 1561 1563 1566 1568 1571 1574 1577 1579
1495 1494 1493 1492 1493 1493 1494 1495 1496 1497 1499 1501 1502 1504 1505 1506 1508 1509 1510 1513 1515 1517 1520 1522 1525 1528 1530 1533 1536 1538 1541 1544 1547 1550 1553 1556 1559 1562 1564 1567 1570 1572 1575
1492 1490 1489 1489 1488 1488 1488 1489 1491 1492 1494 1496 1498 1499 1501 1502 1503 1504 1506 1507 1510 1512 1515 1518 1520 1523 1525 1528 1531 1533 1536 1539 1542 1546 1548 1551 1554 1557 1560 1563 1565 1568 1571
1489 1488 1486 1485 1485 1485 1485 1485 1487 1488 1490 1492 1494 1496 1497 1498 1498 1499 1501 1503 1505 1508 1511 1513 1516 1519 1521 1523 1526 1528 1531 1534 1537 1540 1543 1546 1549 1552 1555 1558 1560 1563 1566
1487 1486 1484 1483 1482 1482 1482 1482 1483 1485 1486 1487 1490 1492 1493 1492 1493 1496 1497 1499 1502 1505 1507 1510 1513 1515 1517 1519 1522 1524 1527 1530 1532 1535 1538 1541 1544 1547 1550 1553 1555 1558 1561
1485 1484 1482 1481 1480 1480 1480 1480 1480 1481 1482 1484 1486 1487 1489 1489 1491 1492 1494 1496 1498 1501 1504 1506 1509 1511 1513 1516 1518 1520 1523 1525 1528 1530 1533 1536 1538 1541 1544 1547 1550 1552 1555
1482 1481 1480 1479 1478 1477 1477 1477 1477 1478 1478 1480 1481 1483 1485 1486 1487 1490 1491 1493 1495 1497 1500 1503 1505 1507 1509 1511 1514 1516 1519 1521 1524 1526 1528 1531 1533 1536 1538 1541 1544 1546 1549
1480 1478 1477 1476 1475 1475 1474 1474 1475 1475 1475 1476 1477 1479 1481 1483 1484 1486 1488 1489 1491 1493 1496 1499 1502 1504 1506 1508 1511 1512 1515 1517 1520 1521 1524 1526 1528 1531 1533 1536 1538 1541 1543
1477 1476 1475 1473 1472 1471 1471 1471 1471 1471 1471 1472 1473 1475 1478 1479 1480 1483 1485 1487 1488 1490 1492 1496 1498 1501 1504 1505 1507 1510 1512 1514 1515 1517 1519 1522 1524 1526 1528 1531 1533 1536 1538
1473 1472 1471 1469 1469 1468 1468 1467 1467 1467 1468 1469 1470 1471 1473 1474 1476 1479 1481 1484 1485 1487 1489 1492 1495 1498 1500 1502 1504 1506 1508 1510 1511 1513 1515 1517 1519 1521 1524 1526 1528 1530 1533
1468 1467 1466 1465 1464 1464 1464 1463 1463 1463 1464 1465 1466 1467 1468 1470 1471 1474 1477 1480 1482 1483 1486 1488 1491 1494 1496 1498 1501 1502 1504 1506 1508 1510 1511 1513 1515 1517 1519 1521 1524 1526 1528
1462 1461 1460 1460 1459 1459 1459 1459 1459 1459 1459 1460 1461 1463 1464 1465 1467 1469 1472 1474 1477 1480 1482 1484 1486 1489 1492 1494 1497 1499 1501 1503 1505 1507 1508 1510 1512 1514 1515 1517 1519 1521 1523
1456 1454 1454 1453 1453 1453 1453 1454 1454 1454 1455 1455 1456 1458 1459 1461 1462 1464 1466 1469 1472 1474 1477 1480 1483 1485 1488 1491 1493 1496 1498 1500 1502 1504 1505 1507 1509 1510 1512 1513 1515 1517 1519
1448 1447 1446 1446 1446 1446 1446 1447 1448 1449 1449 1450 1451 1452 1453 1455 1457 1459 1461 1463 1466 1469 1472 1475 1478 1481 1484 1487 1490 1493 1495 1497 1499 1501 1503 1504 1505 1507 1509 1510 1512 1513 1515
1441 1440 1439 1438 1438 1439 1439 1440 1441 1442 1443 1444 1446 1447 1448 1450 1451 1453 1456 1458 1461 1464 1467 1470 1474 1477 1480 1483 1486 1490 1492 1493 1496 1498 1500 1501 1503 1504 1505 1507 1508 1510 1511
1433 1432 1431 1430 1430 1431 1431 1432 1433 1435 1436 1438 1440 1442 1443 1445 1447 1449 1451 1453 1455 1458 1461 1465 1469 1472 1475 1479 1482 1485 1488 1491 1493 1495 1497 1498 1500 1501 1503 1504 1505 1507 1508
1426 1424 1423 1422 1422 1422 1423 1424 1425 1427 1429 1431 1433 1435 1437 1440 1441 1443 1446 1448 1450 1453 1456 1459 1463 1466 1470 1474 1477 1480 1484 1487 1490 1492 1494 1496 1497 1499 1500 1501 1503 1504 1505
1418 1416 1414 1414 1413 1414 1415 1416 1417 1419 1421 1423 1425 1428 1431 1434 1436 1438 1440 1443 1445 1448 1450 1453 1457 1460 1464 1468 1472 1475 1479 1482 1486 1489 1491 1493 1495 1496 1498 1499 1500 1501 1502
1411 1409 1407 1405 1404 1405 1406 1407 1409 1411 1413 1416 1418 1421 1425 1428 1430 1432 1435 1437 1440 1443 1445 1449 1451 1454 1459 1463 1466 1470 1473 1477 1480 1483 1488 1490 1492 1494 1496 1497 1499 1499 1500
1403 1401 1399 1397 1396 1397 1398 1399 1401 1403 1405 1408 1411 1414 1417 1421 1424 1427 1429 1431 1434 1437 1440 1443 1446 1449 1454 1457 1461 1464 1468 1473 1477 1480 1484 1487 1489 1492 1494 1496 1497 1498 1499
1396 1393 1391 1390 1389 1389 1390 1391 1393 1395 1397 1400 1403 1407 1410 1414 1418 1421 1424 1426 1429 1432 1435 1438 1442 1445 1448 1452 1456 1460 1463 1466 1471 1475 1479 1482 1486 1489 1492 1494 1496 1497 1499
1390 1387 1385 1383 1382 1381 1382 1383 1385 1387 1389 1392 1396 1400 1403 1407 1411 1415 1418 1421 1424 1427 1430 1433 1436 1439 1443 1446 1450 1454 1457 1461 1465 1470 1474 1478 1481 1485 1489 1492 1494 1496 1498